[Iaude] MPEC L11: 2013 PU13 [a=2.39,e=0.50,i=4.0,H=21.41]

mpec at cfa.harvard.edu mpec at cfa.harvard.edu
Sat Jun 1 10:11:14 EDT 2024


M.P.E.C. 2024-L11                                  Issued 2024 June 1, 14:09 UT

     The Minor Planet Electronic Circulars contain information on unusual
         minor planets, routine data on comets and natural satellites,
         and occasional editorial announcements.  They are published
    on behalf of Division F of the International Astronomical Union by the
          Minor Planet Center, Smithsonian Astrophysical Observatory,
                          Cambridge, MA 02138, U.S.A.
			  
             Prepared using the Tamkin Foundation Computer Network

                              MPC at CFA.HARVARD.EDU
            URL https://www.minorplanetcenter.net/    ISSN 1523-6714

                                   2013 PU13                                    


                           Revision to MPEC 2013-P46                            

Additional Observations:
     K13P13U KC2024 05 30.30336315 59 41.071-10 23 52.19               VEL011V06
     K13P13U KC2024 05 30.30784215 59 40.693-10 23 50.21         22.24GVEL011V06
     K13P13U KC2024 05 30.31231915 59 40.358-10 23 48.23         21.96GVEL011V06
     K13P13U KC2024 05 30.31680015 59 40.052-10 23 46.79         22.22GVEL011V06
     K13P13U KC2024 05 31.30489015 58 29.320-10 17 14.68         22.63GVEL011V06
     K13P13U KC2024 05 31.30807215 58 29.082-10 17 13.60         22.51GVEL011V06
     K13P13U KC2024 05 31.32142815 58 28.070-10 17 08.41         22.78GVEL011V06
     K13P13U KC2024 05 31.32461015 58 27.836-10 17 06.97               VEL011V06

Observer details:
V06 Catalina Sky Survey-Kuiper.  Observer V. F. Carvajal.  Measurers T.
    Beuden, V. F. Carvajal, D. Fay, J. B. Fazekas, D. C. Fuls, A. R. Gibbs, A.
    D. Grauer, H. Groeller, J. K. Hogan, R. A. Kowalski, S. M. Larson, G. J.
    Leonard, D. Rankin, R. L. Seaman, F. C. Shelly, K. W. Wierzchos.  1.55-m
    reflector + 1K CCD.

First and last observations above in comparison with prediction:
Residuals in seconds of arc (or two decimals in degrees), reference and Delta-T
240530 V06 0.04+ 0.01+    240531 V06 0.04+ 0.01+    E2024-F50   +0.02 days

Orbital elements:
2013 PU13                                                Earth MOID = 0.1972 AU
Epoch 2024 Mar. 31.0 TT = JDT 2460400.5                 Veres                   
M 314.07800              (2000.0)            P               Q                  
n   0.26649279     Peri.  162.56573     +0.82802811     +0.56032962             
a   2.3915478      Node   163.30962     -0.52236442     +0.78390592             
e   0.4950516      Incl.    3.99397     -0.20372742     +0.26743638             
P   3.70           H   21.41          G   0.15           U   1                  
Residuals in seconds of arc
130806 461  0.5-  0.0     130826 807  0.0   0.0     130905 561  0.7-  0.4-
130806 461  0.2+  0.2+    130826 807  0.2-  0.3+    130909 F51  0.0   0.2+
130806 461 (1.2+  0.8+)   130826 807  0.2-  0.2-    130909 F51  0.1-  0.3+
130807 461  0.4-  0.3-    130826 807  0.1+  0.1-    130909 F51  0.0   0.3+
130807 461  0.6-  0.3+    130826 807  0.1+  0.1+    130909 F51  0.1-  0.2+
130807 461  0.6+  0.2-    130826 H21  0.3+  0.1-    130914 I41  0.1+  0.2+
130807 461  0.2-  0.2-    130826 H21  0.2+  0.2+    130914 I41  0.1+  0.1+
130807 461  0.3+  0.1-    130826 H21  0.4+  0.1-    130914 I41  0.1-  0.1+
130807 J95  0.6-  0.1-    130827 448  0.2+  0.3-    130915 691  0.3-  0.4-
130807 J95  0.1+  0.2-    130827 448  0.4+  0.2+    130915 691  0.0   0.0
130807 J95  0.1-  0.2+    130827 448  0.0   0.4+    130915 691  0.4-  0.1-
130807 A79  1.0+  0.1-    130828 H21  0.2+  0.2-    130915 703  0.7-  1.4+
130807 A79  0.0   0.2-    130828 H21  0.5-  0.4+    130915 703 (1.3-  2.1+)
130807 A79  0.0   0.1-    130828 H21  0.3-  0.3+    130915 703  1.1-  1.2+
130808 H36  0.3+  0.5-    130831 448  0.5+  0.4-    130915 703  0.4-  0.8-
130808 H36  0.1-  1.3-    130831 448  0.4+  0.0     130927 F51  0.1+  0.2-
130811 H21  0.0   0.1+    130831 448  0.7+  0.3-    130927 F51  0.1+  0.1-
130811 H21  0.3+  0.0     130901 G96  0.4+  0.7-    130927 F51  0.0   0.1+
130811 H21  0.2-  0.1-    130901 G96  0.4-  0.1-    130928 G96  0.0   0.3-
130811 H21  0.1+  0.5-    130901 G96  0.0   0.1+    130928 G96  0.0   0.1-
130812 204  0.0   0.1+    130901 G96  0.0   0.1+    130928 G96  0.2-  0.1+
130812 204  0.3-  0.4+    130902 703  0.2-  0.3+    130928 G96  0.2-  0.1+
130812 204  0.1-  0.3-    130902 703  0.9-  0.9-    130930 D29  0.1-  1.0+
130813 Y00  0.4-  0.1-    130902 703  0.3-  0.3-    130930 D29 (0.5+  1.2+)
130813 Y00  0.3+  0.6-    130902 B67  0.6+  0.1+    130930 D29  0.3+  0.5+
130813 Y00  0.9+  0.8+    130903 B67  0.3+  0.2-    131006 807  0.2+  0.3-
130815 H21  0.2-  0.1-    130903 B67  0.3+  0.2-    131006 807  0.3+  0.3-
130815 H21  0.0   0.1+    130903 A13  0.7-  0.4-    131006 807  0.0   0.1-
130815 H21  0.2+  0.2-    130903 A13  0.2+  0.1+    131006 807  0.1-  0.1-
130815 F51  0.2-  0.1-    130905 H21  0.3-  0.0     240530 V06  0.5+  0.1-
130815 F51  0.2-  0.0     130905 H21  0.5-  0.5+    240530 V06  0.1-  0.1+
130815 F51  0.1-  0.1-    130905 H21  0.1-  0.0     240530 V06  0.0   0.3+
130815 F51  0.1-  0.0     130905 H21  0.2-  0.1-    240530 V06  0.5+  0.1-
130819 H21  0.4+  0.0     130905 H21  0.2-  0.1+    240531 V06  0.3-  0.3+
130819 H21  0.5+  0.0     130905 H21  0.5-  0.1-    240531 V06  0.3-  0.1+
130819 H21  0.3+  0.3+    130905 H21  0.1-  0.2+    240531 V06  0.1-  0.0
130820 807  0.2+  0.3-    130905 561  0.4-  0.2+    240531 V06  0.0   0.2+
130820 807  0.0   0.1-    130905 561  1.2-  0.6+
130820 807  0.2-  0.1-    130905 561  1.4-  0.4+

Ephemeris:
2013 PU13                a,e,i = 2.39, 0.50, 4                   q = 1.2076
Date    TT    R. A. (2000) Decl.     Delta      r    Elong.  Phase     V
2024 05 02    16 24 10.6 -13 40 35   0.8864  1.8462   154.1    13.8    23.3
...
2024 05 17    16 14 03.5 -11 58 01   0.7490  1.7512   168.2     6.8    22.5
...
2024 05 25    16 05 49.5 -11 00 22   0.6941  1.7007   170.1     5.9    22.2
...
2024 05 31    15 58 51.4 -10 19 06   0.6613  1.6631   165.9     8.5    22.2
2024 06 01    15 57 39.5 -10 12 35   0.6565  1.6568   165.0     9.1    22.2
2024 06 02    15 56 27.4 -10 06 11   0.6519  1.6506   164.0     9.8    22.2
...
2024 06 08    15 49 16.8 -09 31 15   0.6283  1.6135   157.5    13.9    22.2
...
2024 06 16    15 40 28.2 -08 56 53   0.6064  1.5647   148.4    19.9    22.3
...
2024 07 01    15 29 38.8 -08 42 43   0.5879  1.4769   132.1    30.7    22.4

A. U. Tomatic                (C) Copyright 2024 MPC           M.P.E.C. 2024-L11





More information about the Iaude mailing list